Chillicothe, MO

3:48 PM CST on December 11, 2017 (GMT -0600)
Chillicothe

Weather History for KCDJ - November, 2012

Change the Weather History Date:

Sunday, November 25, 2012

  Actual Average (KIRK) Record (KIRK)
Temperature  
Mean Temperature 40 °F -  
Max Temperature 51 °F 46 °F 66 °F (1960)
Min Temperature 30 °F 28 °F 4 °F (1950)
Degree Days  
Heating Degree Days 24    
Moisture  
Dew Point 27 °F    
Average Humidity 61    
Maximum Humidity 82    
Minimum Humidity 44    
Precipitation  
Precipitation 0.00 in - - ()
Sea Level Pressure  
Sea Level Pressure 30.00 in    
Wind  
Wind Speed 5 mph (NNE)    
Max Wind Speed 8 mph    
Max Gust Speed -    
Averages and records for this station are not official NWS values.
T = Trace of Precipitation, MM = Missing Value Source: NWS Daily Summary

Daily Weather History Graph

Daily Weather History Graph

Search for Another Location

Airport or City:

Trip Planner

Search our weather history database for the weather conditions in past years. The results will help you decide how hot, cold, wet, or windy it might be!

Date:

Astronomy

Nov. 25, 2012 Rise Set
Actual Time 7:10 AM CST 4:51 PM CST
Civil Twilight 6:41 AM CST 5:21 PM CST
Nautical Twilight 6:07 AM CST 5:54 PM CST
Astronomical Twilight 5:35 AM CST 6:27 PM CST
Moon 3:09 PM CST (11/25) 4:25 AM CST (11/25)
Length of Visible Light 10h 40m
Length of Day
9h 41m
Waxing Gibbous, 93% of the Moon is Illuminated
Nov 25
Waxing Gibbous
Nov 28
Full
Dec 6
Last Quarter
Dec 13
New
Dec 19
First Quarter

Hourly Weather History & Observations

Time (CST) Temp. Windchill Dew Point Humidity Pressure Visibility Wind Dir Wind Speed Gust Speed Precip Events Conditions
12:52 AM 39.0 °F 34.8 °F 25.0 °F 57% 29.93 in - South 5.8 mph - N/A   Unknown
1:52 AM 37.9 °F 34.4 °F 25.0 °F 60% 29.93 in - South 4.6 mph - N/A   Unknown
2:52 AM 37.9 °F 33.5 °F 26.1 °F 62% 29.93 in - SSW 5.8 mph - N/A   Unknown
3:52 AM 37.9 °F 34.4 °F 26.1 °F 62% 29.91 in - SSW 4.6 mph - N/A   Unknown
4:52 AM 36.0 °F - 27.0 °F 70% 29.93 in - Calm Calm - N/A   Unknown
5:52 AM 34.0 °F - 26.1 °F 73% 29.95 in - Calm Calm - N/A   Unknown
6:52 AM 30.9 °F - 26.1 °F 82% 29.96 in - Calm Calm - N/A   Unknown
7:52 AM 35.1 °F - 28.0 °F 76% 29.98 in - Calm Calm - N/A   Unknown
8:52 AM 44.1 °F 41.5 °F 27.0 °F 51% 29.98 in - NNW 4.6 mph - N/A   Unknown
9:52 AM 45.0 °F 42.6 °F 27.0 °F 49% 30.01 in - North 4.6 mph - N/A   Unknown
10:52 AM 46.9 °F - 27.0 °F 46% 30.01 in - North 4.6 mph - N/A   Unknown
11:52 AM 48.9 °F - 30.0 °F 48% 29.99 in - NNE 5.8 mph - N/A   Unknown
12:52 PM 51.1 °F - 30.0 °F 44% 29.98 in - Variable 3.5 mph - N/A   Unknown
1:52 PM 51.1 °F - 30.0 °F 44% 29.96 in - North 8.1 mph - N/A   Unknown
2:52 PM 48.9 °F - 30.0 °F 48% 29.98 in - North 6.9 mph - N/A   Unknown
3:52 PM 48.0 °F - 30.0 °F 50% 30.00 in - North 8.1 mph - N/A   Unknown
4:52 PM 44.1 °F 40.8 °F 28.9 °F 55% 30.02 in - NNE 5.8 mph - N/A   Unknown
5:52 PM 41.0 °F 38.0 °F 28.9 °F 62% 30.04 in - NNE 4.6 mph - N/A   Unknown
6:52 PM 35.1 °F 31.0 °F 27.0 °F 72% 30.06 in - NNE 4.6 mph - N/A   Unknown
7:52 PM 37.9 °F 32.7 °F 27.0 °F 65% 30.09 in - NNE 6.9 mph - N/A   Unknown
8:52 PM 36.0 °F 31.1 °F 26.1 °F 67% 30.10 in - North 5.8 mph - N/A   Unknown
9:52 PM 34.0 °F 28.8 °F 25.0 °F 70% 30.10 in - NNE 5.8 mph - N/A   Unknown
10:52 PM 33.1 °F 26.1 °F 25.0 °F 72% 30.13 in - NNE 8.1 mph - N/A   Unknown
11:52 PM 32.0 °F 24.8 °F 24.1 °F 73% 30.13 in - North 8.1 mph - N/A   Unknown